STARLINK-36900

Last updated on Fri Mar 27 2026 00:02:06 GMT+0000 (Coordinated Universal Time)

1 67973U 26038N 26085.45612340 .00081794 00000+0 14900-2 0 9991 2 67973 97.2841 96.2488 0001445 91.2158 268.9259 15.49188610 5809
UTC large
Height (km)
Speed (km/s)
/
Latitude / Longitude
Inclination (degrees)
Orbital Period (minutes)
Azimuth
Elevation
Range (km)
Doppler Factor

Next 0 passes for location: London (51.5072 / 0.1276)

Sorry there are no passes over London.